EDT,Max TemperatureF,Mean TemperatureF,Min TemperatureF,Max Dew PointF,MeanDew PointF,Min DewpointF,Max Humidity, Mean Humidity, Min Humidity, Max Sea Level PressureIn, Mean Sea Level PressureIn, Min Sea Level PressureIn, Max VisibilityMiles, Mean VisibilityMiles, Min VisibilityMiles, Max Wind SpeedMPH, Mean Wind SpeedMPH, Max Gust SpeedMPH,PrecipitationIn, CloudCover, Events, WindDirDegrees
2012-9-1,87,79,71,75,71,66,100,78,49,30.13,30.07,30.02,10,8,0,5,1,,0.00,2,Fog-Rain-Thunderstorm,238
2012-9-2,91,82,73,75,72,66,100,85,43,30.03,30.01,29.95,10,9,4,15,1,,0.64,4,Rain-Thunderstorm,138
2012-9-3,87,79,71,75,72,70,100,85,58,30.06,30.01,29.97,10,7,0,14,1,30,0.22,6,Fog-Rain-Thunderstorm,151
2012-9-4,84,78,71,79,72,70,100,86,62,30.02,29.96,29.90,10,7,1,8,1,,0.20,5,Rain,203
2012-9-5,87,81,75,75,73,68,94,80,52,29.91,29.86,29.81,10,9,4,13,4,17,0.00,5,Thunderstorm,209
2012-9-6,82,76,69,73,70,64,100,82,54,29.96,29.90,29.83,10,8,0,9,3,,0.39,2,Fog-Rain-Thunderstorm,146
2012-9-7,89,76,64,72,66,61,100,74,40,29.97,29.92,29.85,10,7,0,8,1,,0.00,2,Fog,152
2012-9-8,89,78,66,73,68,59,100,80,49,29.86,29.76,29.64,10,7,0,17,3,36,0.00,3,Fog,193
2012-9-9,80,72,62,64,54,43,94,61,26,29.98,29.89,29.84,10,10,7,7,1,,0.00,4,,350
2012-9-10,78,66,53,55,48,41,94,58,28,30.19,30.07,29.99,10,10,10,12,2,9,0.00,0,,3
2012-9-11,80,65,50,55,48,37,94,63,24,30.32,30.26,30.19,10,10,5,8,2,,0.00,0,,36
2012-9-12,82,66,50,57,52,45,100,69,28,30.37,30.32,30.29,10,9,2,6,1,,0.00,0,,146
2012-9-13,82,66,50,61,51,37,100,68,21,30.37,30.32,30.26,10,8,0,6,0,,0.00,0,Fog,68
2012-9-14,82,68,55,63,58,54,100,73,37,30.28,30.20,30.13,10,10,2,9,1,,0.00,1,,205
2012-9-15,78,66,55,61,51,43,100,65,28,30.23,30.16,30.11,10,9,2,15,3,20,0.00,1,,31
2012-9-16,68,62,55,61,56,50,94,79,56,30.18,30.14,30.10,10,10,5,7,1,,0.00,7,Rain,207
2012-9-17,73,64,55,70,62,54,100,88,65,30.12,30.06,29.94,10,7,0,6,0,,0.20,8,Fog-Rain,159
2012-9-18,78,72,66,73,69,66,100,91,78,29.93,29.77,29.68,10,10,5,26,9,36,0.45,7,Rain,185
2012-9-19,73,63,53,66,55,46,100,73,41,30.15,30.04,29.82,10,10,5,12,3,,0.00,4,,36
2012-9-20,78,63,48,61,52,46,100,74,39,30.19,30.12,30.05,10,9,3,7,1,,0.00,1,,182
2012-9-21,82,68,53,64,57,52,100,73,37,30.08,30.02,29.96,10,7,0,8,2,,0.00,2,Fog,189
2012-9-22,86,73,60,64,60,48,100,69,35,29.96,29.90,29.82,10,10,7,15,5,23,0.00,1,,208
2012-9-23,71,60,48,55,42,30,88,52,22,30.16,30.08,29.95,10,10,10,10,2,,0.00,2,,27
2012-9-24,71,56,42,48,40,27,100,61,20,30.24,30.18,30.15,10,10,5,7,1,,0.00,0,,29
2012-9-25,77,58,39,57,47,39,100,69,32,30.21,30.17,30.05,10,9,1,14,3,20,0.00,0,,201
2012-9-26,86,72,57,64,58,55,94,69,35,30.18,30.14,30.10,10,10,7,10,5,20,0.00,0,,199
2012-9-27,89,74,59,64,60,55,100,68,31,30.16,30.11,30.06,10,9,0,7,1,,0.00,0,Fog,163
2012-9-28,82,71,60,66,62,57,94,76,42,30.08,30.02,29.96,10,10,3,9,1,,0.00,2,Thunderstorm,193
2012-9-29,68,64,60,63,57,52,100,82,60,30.03,29.97,29.91,10,9,3,8,2,,0.06,7,Rain,103
2012-9-30,75,63,51,57,50,43,94,66,31,29.94,29.89,29.80,10,10,5,10,3,9,0.00,2,,211